,,Stat6,,Stat2,,Stat8,,Stat9,,Stat10,,Wind1,,Wind1,
time,status,PA1M_AVG,status,PR1M_SUM,status,RH1M_AVG,status,SR1M_AVG,status,TA1M_AVG,status,W1dAve1m,status,W1sAve1m,
2007-05-31, 00:00:00,VALID,919.11,VALID,0,VALID,100,VALID,-0.0679233,VALID,19.5793,VALID,154,VALID,0.971576,
2007-05-31, 00:01:00,VALID,919.081,VALID,0,VALID,100,VALID,-0.0679233,VALID,19.5987,VALID,163,VALID,1.11662,
2007-05-31, 00:02:00,VALID,919.065,VALID,0,VALID,100,VALID,-0.101885,VALID,19.5955,VALID,160,VALID,1.09175,
2007-05-31, 00:03:00,VALID,919.056,VALID,0,VALID,100,VALID,-0.0509425,VALID,19.5985,VALID,158,VALID,1.07292,
2007-05-31, 00:04:00,VALID,919.051,VALID,0,VALID,100,VALID,-0.0849042,VALID,19.6085,VALID,147,VALID,0.821403,
2007-05-31, 00:05:00,VALID,919.072,VALID,0,VALID,100,VALID,-0.101885,VALID,19.6122,VALID,147,VALID,0.856326,
2007-05-31, 00:06:00,VALID,919.072,VALID,0,VALID,100,VALID,-0.0849042,VALID,19.6085,VALID,153,VALID,0.75558,
2007-05-31, 00:07:00,VALID,919.065,VALID,0,VALID,100,VALID,-0.0849042,VALID,19.6179,VALID,138,VALID,0.869336,
2007-05-31, 00:08:00,VALID,919.068,VALID,0,VALID,100,VALID,-0.101885,VALID,19.6249,VALID,150,VALID,0.752362,
2007-05-31, 00:09:00,VALID,919.075,VALID,0,VALID,100,VALID,-0.0679233,VALID,19.6279,VALID,144,VALID,0.713246,
2007-05-31, 00:10:00,VALID,919.071,VALID,0,VALID,100,VALID,-0.0339617,VALID,19.6407,VALID,154,VALID,0.727307,
2007-05-31, 00:11:00,VALID,919.07,VALID,0,VALID,100,VALID,-0.0679233,VALID,19.6506,VALID,155,VALID,0.612216,
2007-05-31, 00:12:00,VALID,919.07,VALID,0,VALID,100,VALID,-0.0339617,VALID,19.6539,VALID,156,VALID,0.472747,
2007-05-31, 00:13:00,VALID,919.06,VALID,0,VALID,100,VALID,-0.0679233,VALID,19.6636,VALID,156,VALID,0.411932,
2007-05-31, 00:14:00,VALID,919.057,VALID,0,VALID,100,VALID,-0.0509425,VALID,19.6666,VALID,156,VALID,0.364281,
2007-05-31, 00:15:00,VALID,919.032,VALID,0,VALID,100,VALID,-0.0339617,VALID,19.6691,VALID,156,VALID,0.24814,
2007-05-31, 00:16:00,VALID,919.011,VALID,0,VALID,100,VALID,-0.0849042,VALID,19.6798,VALID,156,VALID,0.34375,
2007-05-31, 00:17:00,VALID,918.987,VALID,0,VALID,100,VALID,-0.0339617,VALID,19.6896,VALID,156,VALID,0.426054,
2007-05-31, 00:18:00,VALID,918.975,VALID,0,VALID,100,VALID,-0.101885,VALID,19.6993,VALID,156,VALID,0.315044,
2007-05-31, 00:19:00,VALID,918.951,VALID,0,VALID,100,VALID,-0.101885,VALID,19.722,VALID,156,VALID,0.242543,
2007-05-31, 00:20:00,VALID,918.948,VALID,0,VALID,100,VALID,-0.0849042,VALID,19.735,VALID,156,VALID,0.0301599,
2007-05-31, 00:21:00,VALID,918.947,VALID,0,VALID,100,VALID,-0.0679233,VALID,19.7417,VALID,156,VALID,0,
2007-05-31, 00:22:00,VALID,918.967,VALID,0,VALID,100,VALID,-0.0679233,VALID,19.7445,VALID,156,VALID,0,
2007-05-31, 00:23:00,VALID,918.954,VALID,0,VALID,100,VALID,-0.0339617,VALID,19.7704,VALID,156,VALID,0.129688,
2007-05-31, 00:24:00,VALID,918.954,VALID,0,VALID,100,VALID,-0.0339617,VALID,19.7902,VALID,204,VALID,0.604329,
2007-05-31, 00:25:00,VALID,918.936,VALID,0,VALID,100,VALID,-0.0679233,VALID,19.7807,VALID,293,VALID,0.645952,
2007-05-31, 00:26:00,VALID,918.932,VALID,0,VALID,100,VALID,-0.0509425,VALID,19.7672,VALID,291,VALID,0.429324,
2007-05-31, 00:27:00,VALID,918.917,VALID,0,VALID,100,VALID,-0.0679233,VALID,19.7674,VALID,291,VALID,0.450076,
2007-05-31, 00:28:00,VALID,918.911,VALID,0,VALID,100,VALID,-0.0849042,VALID,19.7869,VALID,291,VALID,0.165777,
2007-05-31, 00:29:00,VALID,918.911,VALID,0,VALID,100,VALID,-0.101885,VALID,19.7902,VALID,291,VALID,0.140439,
2007-05-31, 00:30:00,VALID,918.894,VALID,0,VALID,100,VALID,-0.0679233,VALID,19.7804,VALID,291,VALID,0.0450149,
2007-05-31, 00:31:00,VALID,918.896,VALID,0,VALID,100,VALID,-0.0849042,VALID,19.7772,VALID,291,VALID,0.0111607,
2007-05-31, 00:32:00,VALID,918.897,VALID,0,VALID,100,VALID,-0.0849042,VALID,19.7872,VALID,291,VALID,0.0692472,
2007-05-31, 00:33:00,VALID,918.887,VALID,0,VALID,100,VALID,-0.101885,VALID,19.7804,VALID,295,VALID,0.42024,
2007-05-31, 00:34:00,VALID,918.891,VALID,0,VALID,100,VALID,-0.101885,VALID,19.7804,VALID,296,VALID,0.0964134,
2007-05-31, 00:35:00,VALID,918.902,VALID,0,VALID,100,VALID,-0.101885,VALID,19.7934,VALID,296,VALID,0,
2007-05-31, 00:36:00,VALID,918.893,VALID,0,VALID,100,VALID,-0.0849042,VALID,19.7934,VALID,296,VALID,0,
2007-05-31, 00:37:00,VALID,918.894,VALID,0,VALID,100,VALID,-0.101885,VALID,19.7834,VALID,296,VALID,0,
2007-05-31, 00:38:00,VALID,918.878,VALID,0,VALID,100,VALID,-0.101885,VALID,19.7772,VALID,296,VALID,0.121911,
2007-05-31, 00:39:00,VALID,918.864,VALID,0,VALID,100,VALID,-0.0849042,VALID,19.7772,VALID,295,VALID,0.0267078,
2007-05-31, 00:40:00,VALID,918.862,VALID,0,VALID,100,VALID,-0.101885,VALID,19.7709,VALID,295,VALID,0.41282,
2007-05-31, 00:41:00,VALID,918.844,VALID,0,VALID,100,VALID,-0.0849042,VALID,19.748,VALID,275,VALID,0.405208,
2007-05-31, 00:42:00,VALID,918.818,VALID,0,VALID,100,VALID,-0.0509425,VALID,19.722,VALID,167,VALID,0.421689,
2007-05-31, 00:43:00,VALID,918.81,VALID,0,VALID,100,VALID,-0.0849042,VALID,19.7088,VALID,167,VALID,0.0933388,
2007-05-31, 00:44:00,VALID,918.789,VALID,0,VALID,100,VALID,-0.0849042,VALID,19.6958,VALID,167,VALID,0,
2007-05-31, 00:45:00,VALID,918.765,VALID,0,VALID,100,VALID,-0.0849042,VALID,19.6958,VALID,167,VALID,0.0262277,
2007-05-31, 00:46:00,VALID,918.746,VALID,0,VALID,100,VALID,-0.0509425,VALID,19.6993,VALID,167,VALID,0.0362043,
2007-05-31, 00:47:00,VALID,918.729,VALID,0,VALID,100,VALID,-0.0509425,VALID,19.7058,VALID,167,VALID,0,
2007-05-31, 00:48:00,VALID,918.72,VALID,0,VALID,100,VALID,-0.101885,VALID,19.7218,VALID,167,VALID,0.0065407,
2007-05-31, 00:49:00,VALID,918.691,VALID,0,VALID,100,VALID,-0.0679233,VALID,19.738,VALID,167,VALID,0,
2007-05-31, 00:50:00,VALID,918.664,VALID,0,VALID,100,VALID,-0.101885,VALID,19.7515,VALID,167,VALID,0.0012429,
2007-05-31, 00:51:00,VALID,918.639,VALID,0,VALID,100,VALID,-0.101885,VALID,19.758,VALID,167,VALID,0,
2007-05-31, 00:52:00,VALID,918.625,VALID,0,VALID,100,VALID,-0.0679233,VALID,19.7637,VALID,167,VALID,0.00490552,
2007-05-31, 00:53:00,VALID,918.59,VALID,0,VALID,100,VALID,-0.101885,VALID,19.7545,VALID,122,VALID,0.564546,
2007-05-31, 00:54:00,VALID,918.564,VALID,0,VALID,100,VALID,-0.101885,VALID,19.7447,VALID,37,VALID,0.560683,
2007-05-31, 00:55:00,VALID,918.536,VALID,0,VALID,100,VALID,-0.0679233,VALID,19.7188,VALID,34,VALID,0.499442,
2007-05-31, 00:56:00,VALID,918.508,VALID,0,VALID,100,VALID,-0.0509425,VALID,19.7118,VALID,33,VALID,0.458394,
2007-05-31, 00:57:00,VALID,918.474,VALID,0,VALID,100,VALID,-0.0339617,VALID,19.712,VALID,33,VALID,0.183333,
2007-05-31, 00:58:00,VALID,918.463,VALID,0,VALID,100,VALID,-0.0509425,VALID,19.725,VALID,33,VALID,0.460428,
2007-05-31, 00:59:00,VALID,918.447,VALID,0,VALID,100,VALID,-0.0169808,VALID,19.711,VALID,16,VALID,0.718568,
2007-05-31, 01:00:00,VALID,918.435,VALID,0,VALID,100,VALID,0,VALID,19.6651,VALID,8,VALID,0.616629,
2007-05-31, 01:01:00,VALID,918.411,VALID,0,VALID,100,VALID,0,VALID,19.6651,VALID,17,VALID,0.722396,
2007-05-31, 01:02:00,VALID,918.395,VALID,0,VALID,100,VALID,0.0339617,VALID,19.6526,VALID,19,VALID,0.849414,
2007-05-31, 01:03:00,VALID,918.377,VALID,0,VALID,100,VALID,0.0339617,VALID,19.6389,VALID,13,VALID,0.605196,
2007-05-31, 01:04:00,VALID,918.366,VALID,0,VALID,100,VALID,0.0169808,VALID,19.6394,VALID,6,VALID,0.351749,
2007-05-31, 01:05:00,VALID,918.374,VALID,0,VALID,100,VALID,0.0339617,VALID,19.6394,VALID,14,VALID,0.426235,
2007-05-31, 01:06:00,VALID,918.354,VALID,0,VALID,100,VALID,0,VALID,19.6329,VALID,37,VALID,0.603516,
2007-05-31, 01:07:00,VALID,918.35,VALID,0,VALID,100,VALID,0.0339617,VALID,19.6297,VALID,36,VALID,0.405134,
2007-05-31, 01:08:00,VALID,918.336,VALID,0,VALID,100,VALID,0.0509425,VALID,19.6035,VALID,22,VALID,0.610263,
2007-05-31, 01:09:00,VALID,918.309,VALID,0,VALID,100,VALID,0.0169808,VALID,19.5521,VALID,17,VALID,0.521129,
2007-05-31, 01:10:00,VALID,918.289,VALID,0,VALID,100,VALID,0,VALID,19.5294,VALID,15,VALID,0.501715,
2007-05-31, 01:11:00,VALID,918.269,VALID,0,VALID,100,VALID,0,VALID,19.5358,VALID,14,VALID,0.579985,
2007-05-31, 01:12:00,VALID,918.239,VALID,0,VALID,100,VALID,0.0339617,VALID,19.5291,VALID,14,VALID,0.713889,
2007-05-31, 01:13:00,VALID,918.221,VALID,0,VALID,100,VALID,0.0169808,VALID,19.5126,VALID,14,VALID,0.529154,
2007-05-31, 01:14:00,VALID,918.192,VALID,0,VALID,100,VALID,-0.0169808,VALID,19.5231,VALID,14,VALID,0.569957,
2007-05-31, 01:15:00,VALID,918.186,VALID,0,VALID,100,VALID,-0.101885,VALID,19.5336,VALID,14,VALID,0.448289,
2007-05-31, 01:16:00,VALID,918.162,VALID,0,VALID,100,VALID,-0.0509425,VALID,19.5338,VALID,14,VALID,0.494549,
2007-05-31, 01:17:00,VALID,918.154,VALID,0,VALID,100,VALID,-0.0849042,VALID,19.5403,VALID,14,VALID,0.486378,
2007-05-31, 01:18:00,VALID,918.131,VALID,0,VALID,100,VALID,-0.0509425,VALID,19.5239,VALID,14,VALID,0.644077,
2007-05-31, 01:19:00,VALID,918.14,VALID,0,VALID,100,VALID,-0.101885,VALID,19.5176,VALID,25,VALID,0.567882,
2007-05-31, 01:20:00,VALID,918.122,VALID,0,VALID,100,VALID,-0.0509425,VALID,19.5433,VALID,40,VALID,0.373666,
2007-05-31, 01:21:00,VALID,918.106,VALID,0,VALID,100,VALID,-0.0679233,VALID,19.5565,VALID,35,VALID,0.467685,
2007-05-31, 01:22:00,VALID,918.074,VALID,0,VALID,100,VALID,-0.0849042,VALID,19.563,VALID,42,VALID,0.835565,
2007-05-31, 01:23:00,VALID,918.059,VALID,0,VALID,100,VALID,-0.0849042,VALID,19.5663,VALID,25,VALID,0.633371,
2007-05-31, 01:24:00,VALID,918.034,VALID,0,VALID,100,VALID,-0.0679233,VALID,19.589,VALID,25,VALID,0.570494,
2007-05-31, 01:25:00,VALID,917.991,VALID,0,VALID,100,VALID,-0.0849042,VALID,19.6117,VALID,25,VALID,0.585756,
2007-05-31, 01:26:00,VALID,917.96,VALID,0,VALID,100,VALID,-0.0509425,VALID,19.6182,VALID,25,VALID,0.476381,
2007-05-31, 01:27:00,VALID,917.931,VALID,0,VALID,100,VALID,-0.0679233,VALID,19.6182,VALID,25,VALID,0.437872,
2007-05-31, 01:28:00,VALID,917.892,VALID,0,VALID,100,VALID,-0.0849042,VALID,19.6149,VALID,25,VALID,0.619792,
2007-05-31, 01:29:00,VALID,917.867,VALID,0,VALID,100,VALID,-0.0679233,VALID,19.576,VALID,25,VALID,0.930233,
2007-05-31, 01:30:00,VALID,917.833,VALID,0,VALID,100,VALID,-0.0849042,VALID,19.5565,VALID,26,VALID,1.10338,
2007-05-31, 01:31:00,VALID,917.811,VALID,0,VALID,100,VALID,-0.0679233,VALID,19.5403,VALID,19,VALID,0.907738,
2007-05-31, 01:32:00,VALID,917.795,VALID,0,VALID,100,VALID,-0.0339617,VALID,19.5436,VALID,17,VALID,0.543423,
2007-05-31, 01:33:00,VALID,917.78,VALID,0,VALID,100,VALID,-0.0339617,VALID,19.5301,VALID,17,VALID,0.1875,
2007-05-31, 01:34:00,VALID,917.779,VALID,0,VALID,100,VALID,-0.0339617,VALID,19.5436,VALID,17,VALID,0.177734,
2007-05-31, 01:35:00,VALID,917.756,VALID,0,VALID,100,VALID,-0.0679233,VALID,19.5436,VALID,17,VALID,0.456555,
2007-05-31, 01:36:00,VALID,917.757,VALID,0,VALID,100,VALID,-0.0679233,VALID,19.5236,VALID,18,VALID,0.629179,
2007-05-31, 01:37:00,VALID,917.756,VALID,0,VALID,100,VALID,-0.0509425,VALID,19.5209,VALID,33,VALID,0.790698,
2007-05-31, 01:38:00,VALID,917.73,VALID,0,VALID,100,VALID,-0.0509425,VALID,19.5403,VALID,33,VALID,1.02158,
2007-05-31, 01:39:00,VALID,917.718,VALID,0,VALID,99.9148,VALID,-0.0849042,VALID,19.5303,VALID,33,VALID,1.13136,
2007-05-31, 01:40:00,VALID,917.716,VALID,0,VALID,99.8858,VALID,-0.101885,VALID,19.5598,VALID,31,VALID,0.771802,
2007-05-31, 01:41:00,VALID,917.698,VALID,0,VALID,99.6989,VALID,-0.101885,VALID,19.5503,VALID,31,VALID,0.99673,
2007-05-31, 01:42:00,VALID,917.676,VALID,0,VALID,99.5501,VALID,-0.0679233,VALID,19.567,VALID,22,VALID,0.72923,
2007-05-31, 01:43:00,VALID,917.65,VALID,0,VALID,99.5298,VALID,-0.0679233,VALID,19.573,VALID,29,VALID,0.817255,
2007-05-31, 01:44:00,VALID,917.621,VALID,0,VALID,99.4306,VALID,-0.0849042,VALID,19.5565,VALID,30,VALID,0.877734,
2007-05-31, 01:45:00,VALID,917.58,VALID,0,VALID,99.3861,VALID,-0.0849042,VALID,19.5501,VALID,27,VALID,0.637109,
2007-05-31, 01:46:00,VALID,917.553,VALID,0,VALID,99.4573,VALID,-0.0849042,VALID,19.5698,VALID,27,VALID,0.565168,
2007-05-31, 01:47:00,VALID,917.53,VALID,0,VALID,99.3276,VALID,-0.0849042,VALID,19.5825,VALID,21,VALID,1.03427,
2007-05-31, 01:48:00,VALID,917.533,VALID,0,VALID,99.2538,VALID,-0.0679233,VALID,19.602,VALID,21,VALID,0.515447,
2007-05-31, 01:49:00,VALID,917.518,VALID,0,VALID,99.2551,VALID,-0.0849042,VALID,19.602,VALID,19,VALID,0.505729,
2007-05-31, 01:50:00,VALID,917.511,VALID,0,VALID,99.2322,VALID,-0.0849042,VALID,19.6052,VALID,351,VALID,0.438194,
2007-05-31, 01:51:00,VALID,917.51,VALID,0,VALID,99.1457,VALID,-0.0509425,VALID,19.589,VALID,3,VALID,0.478743,
2007-05-31, 01:52:00,VALID,917.511,VALID,0,VALID,99.222,VALID,-0.101885,VALID,19.5992,VALID,5,VALID,0.171528,
2007-05-31, 01:53:00,VALID,917.495,VALID,0,VALID,99.2653,VALID,-0.0849042,VALID,19.5982,VALID,5,VALID,0.248547,
2007-05-31, 01:54:00,VALID,917.49,VALID,0,VALID,99.222,VALID,-0.118866,VALID,19.6085,VALID,5,VALID,0.0106027,
2007-05-31, 01:55:00,VALID,917.489,VALID,0,VALID,99.1712,VALID,-0.0339617,VALID,19.6252,VALID,5,VALID,0.427484,
2007-05-31, 01:56:00,VALID,917.478,VALID,0,VALID,99.016,VALID,-0.0679233,VALID,19.6119,VALID,20,VALID,0.660442,
2007-05-31, 01:57:00,VALID,917.486,VALID,0,VALID,98.894,VALID,-0.0849042,VALID,19.6149,VALID,36,VALID,0.586648,
2007-05-31, 01:58:00,VALID,917.491,VALID,0,VALID,98.7388,VALID,-0.0679233,VALID,19.6244,VALID,52,VALID,0.750908,
2007-05-31, 01:59:00,VALID,917.492,VALID,0,VALID,98.6346,VALID,-0.101885,VALID,19.6309,VALID,52,VALID,0.615327,
2007-05-31, 02:00:00,VALID,917.486,VALID,0,VALID,98.5862,VALID,-0.0849042,VALID,19.6344,VALID,44,VALID,0.587984,
2007-05-31, 02:01:00,VALID,917.479,VALID,0,VALID,98.5036,VALID,-0.0849042,VALID,19.6314,VALID,33,VALID,0.317835,
2007-05-31, 02:02:00,VALID,917.479,VALID,0,VALID,98.4642,VALID,-0.0849042,VALID,19.6414,VALID,43,VALID,0.593395,
2007-05-31, 02:03:00,VALID,917.485,VALID,0,VALID,98.3523,VALID,-0.0849042,VALID,19.6279,VALID,48,VALID,0.306445,
2007-05-31, 02:04:00,VALID,917.482,VALID,0,VALID,98.2645,VALID,-0.101885,VALID,19.6214,VALID,48,VALID,0.0336682,
2007-05-31, 02:05:00,VALID,917.467,VALID,0,VALID,98.295,VALID,-0.101885,VALID,19.6217,VALID,48,VALID,0.0720274,
2007-05-31, 02:06:00,VALID,917.465,VALID,0,VALID,98.4108,VALID,-0.101885,VALID,19.6217,VALID,69,VALID,0.299107,
2007-05-31, 02:07:00,VALID,917.454,VALID,0,VALID,98.4781,VALID,-0.0509425,VALID,19.6082,VALID,103,VALID,0.384588,
2007-05-31, 02:08:00,VALID,917.453,VALID,0,VALID,98.5735,VALID,-0.0679233,VALID,19.602,VALID,128,VALID,0.498728,
2007-05-31, 02:09:00,VALID,917.44,VALID,0,VALID,98.8406,VALID,-0.0849042,VALID,19.6182,VALID,149,VALID,0.692454,
2007-05-31, 02:10:00,VALID,917.425,VALID,0,VALID,99.1127,VALID,-0.0849042,VALID,19.6279,VALID,160,VALID,0.617188,
2007-05-31, 02:11:00,VALID,917.421,VALID,0,VALID,99.3288,VALID,-0.0509425,VALID,19.6247,VALID,159,VALID,0.438953,
2007-05-31, 02:12:00,VALID,917.414,VALID,0,VALID,99.6951,VALID,-0.0509425,VALID,19.6252,VALID,157,VALID,1.04142,
2007-05-31, 02:13:00,VALID,917.403,VALID,0,VALID,99.969,VALID,-0.101885,VALID,19.6087,VALID,157,VALID,0.756722,
2007-05-31, 02:14:00,VALID,917.388,VALID,0,VALID,100,VALID,-0.101885,VALID,19.5695,VALID,154,VALID,0.721168,
2007-05-31, 02:15:00,VALID,917.382,VALID,0,VALID,100,VALID,-0.0849042,VALID,19.5501,VALID,151,VALID,0.712936,
2007-05-31, 02:16:00,VALID,917.38,VALID,0,VALID,100,VALID,-0.101885,VALID,19.5311,VALID,144,VALID,1.0184,
2007-05-31, 02:17:00,VALID,917.37,VALID,0,VALID,100,VALID,-0.101885,VALID,19.5149,VALID,141,VALID,1.14707,
2007-05-31, 02:18:00,VALID,917.359,VALID,0,VALID,100,VALID,-0.101885,VALID,19.4956,VALID,143,VALID,1.06612,
2007-05-31, 02:19:00,VALID,917.352,VALID,0,VALID,100,VALID,-0.101885,VALID,19.4662,VALID,140,VALID,0.587028,
2007-05-31, 02:20:00,VALID,917.349,VALID,0,VALID,100,VALID,-0.101885,VALID,19.4437,VALID,138,VALID,0.873224,
2007-05-31, 02:21:00,VALID,917.341,VALID,0,VALID,100,VALID,-0.101885,VALID,19.414,VALID,135,VALID,0.693859,
2007-05-31, 02:22:00,VALID,917.324,VALID,0,VALID,100,VALID,-0.101885,VALID,19.3978,VALID,135,VALID,0.811632,
2007-05-31, 02:23:00,VALID,917.321,VALID,0,VALID,100,VALID,-0.135847,VALID,19.3751,VALID,135,VALID,0.578683,
2007-05-31, 02:24:00,VALID,917.307,VALID,0,VALID,100,VALID,-0.0849042,VALID,19.3684,VALID,135,VALID,0.191592,
2007-05-31, 02:25:00,VALID,917.313,VALID,0,VALID,100,VALID,-0.101885,VALID,19.3721,VALID,135,VALID,0.0357143,
2007-05-31, 02:26:00,VALID,917.287,VALID,0,VALID,100,VALID,-0.101885,VALID,19.3791,VALID,133,VALID,0.526042,
2007-05-31, 02:27:00,VALID,917.277,VALID,0,VALID,100,VALID,-0.101885,VALID,19.3596,VALID,106,VALID,0.554865,
2007-05-31, 02:28:00,VALID,917.271,VALID,0,VALID,100,VALID,-0.0849042,VALID,19.3489,VALID,106,VALID,0.302951,
2007-05-31, 02:29:00,VALID,917.263,VALID,0,VALID,100,VALID,-0.0169808,VALID,19.3484,VALID,106,VALID,0.292969,
2007-05-31, 02:30:00,VALID,917.257,VALID,0,VALID,100,VALID,0.0509425,VALID,19.337,VALID,106,VALID,0.363467,
2007-05-31, 02:31:00,VALID,917.262,VALID,0,VALID,100,VALID,0.0679233,VALID,19.3509,VALID,106,VALID,0.408296,
2007-05-31, 02:32:00,VALID,917.265,VALID,0,VALID,100,VALID,0,VALID,19.341,VALID,106,VALID,0.311198,
2007-05-31, 02:33:00,VALID,917.261,VALID,0,VALID,100,VALID,0.0169808,VALID,19.344,VALID,106,VALID,0.399609,
2007-05-31, 02:34:00,VALID,917.264,VALID,0,VALID,100,VALID,0,VALID,19.344,VALID,106,VALID,0.429865,
2007-05-31, 02:35:00,VALID,917.255,VALID,0,VALID,100,VALID,0.0679233,VALID,19.3574,VALID,106,VALID,0.510231,
2007-05-31, 02:36:00,VALID,917.26,VALID,0,VALID,100,VALID,0,VALID,19.3474,VALID,106,VALID,0.471181,
2007-05-31, 02:37:00,VALID,917.279,VALID,0,VALID,100,VALID,0.0509425,VALID,19.3532,VALID,106,VALID,0.361151,
2007-05-31, 02:38:00,VALID,917.278,VALID,0,VALID,100,VALID,0.0679233,VALID,19.3599,VALID,102,VALID,0.429883,
2007-05-31, 02:39:00,VALID,917.28,VALID,0,VALID,100,VALID,0.0509425,VALID,19.3574,VALID,96,VALID,0.590234,
2007-05-31, 02:40:00,VALID,917.263,VALID,0,VALID,100,VALID,0.0169808,VALID,19.3607,VALID,95,VALID,0.555664,
2007-05-31, 02:41:00,VALID,917.258,VALID,0,VALID,100,VALID,0.0849042,VALID,19.3731,VALID,95,VALID,0.460069,
2007-05-31, 02:42:00,VALID,917.253,VALID,0,VALID,100,VALID,0.0339617,VALID,19.3794,VALID,95,VALID,0.430778,
2007-05-31, 02:43:00,VALID,917.242,VALID,0,VALID,100,VALID,0.0339617,VALID,19.4061,VALID,95,VALID,0.456836,
2007-05-31, 02:44:00,VALID,917.231,VALID,0,VALID,100,VALID,0.0169808,VALID,19.4091,VALID,95,VALID,0.414063,
2007-05-31, 02:45:00,VALID,917.206,VALID,0,VALID,100,VALID,0.0509425,VALID,19.4223,VALID,95,VALID,0.262091,
2007-05-31, 02:46:00,VALID,917.22,VALID,0,VALID,100,VALID,0.0509425,VALID,19.4188,VALID,95,VALID,0.0918403,
2007-05-31, 02:47:00,VALID,917.213,VALID,0,VALID,100,VALID,0.0339617,VALID,19.4577,VALID,95,VALID,0,
2007-05-31, 02:48:00,VALID,917.217,VALID,0,VALID,100,VALID,0.0509425,VALID,19.4675,VALID,95,VALID,0,
2007-05-31, 02:49:00,VALID,917.226,VALID,0,VALID,100,VALID,0.0169808,VALID,19.474,VALID,95,VALID,0,
2007-05-31, 02:50:00,VALID,917.223,VALID,0,VALID,100,VALID,0.0339617,VALID,19.4804,VALID,95,VALID,0.209484,
2007-05-31, 02:51:00,VALID,917.248,VALID,0,VALID,100,VALID,0.0169808,VALID,19.477,VALID,95,VALID,0.544969,
2007-05-31, 02:52:00,VALID,917.254,VALID,0,VALID,100,VALID,0.0169808,VALID,19.4804,VALID,95,VALID,0.483774,
2007-05-31, 02:53:00,VALID,917.268,VALID,0,VALID,100,VALID,0.0509425,VALID,19.4839,VALID,95,VALID,0.43892,
2007-05-31, 02:54:00,VALID,917.263,VALID,0,VALID,100,VALID,0.0679233,VALID,19.4772,VALID,106,VALID,0.691497,
2007-05-31, 02:55:00,VALID,917.259,VALID,0,VALID,100,VALID,0.0339617,VALID,19.4804,VALID,130,VALID,0.816311,
2007-05-31, 02:56:00,VALID,917.25,VALID,0,VALID,100,VALID,0.0169808,VALID,19.4772,VALID,134,VALID,1.04167,
2007-05-31, 02:57:00,VALID,917.248,VALID,0,VALID,100,VALID,0,VALID,19.4969,VALID,142,VALID,0.908668,
2007-05-31, 02:58:00,VALID,917.237,VALID,0,VALID,100,VALID,0.0169808,VALID,19.5099,VALID,147,VALID,0.740234,
2007-05-31, 02:59:00,VALID,917.235,VALID,0,VALID,100,VALID,-0.0679233,VALID,19.5204,VALID,145,VALID,1.06339,
2007-05-31, 03:00:00,VALID,917.223,VALID,0,VALID,100,VALID,-0.0509425,VALID,19.5109,VALID,142,VALID,1.33842,
2007-05-31, 03:01:00,VALID,917.209,VALID,0,VALID,100,VALID,-0.0509425,VALID,19.4849,VALID,144,VALID,1.30301,
2007-05-31, 03:02:00,VALID,917.215,VALID,0,VALID,100,VALID,-0.0679233,VALID,19.4625,VALID,131,VALID,1.29306,
2007-05-31, 03:03:00,VALID,917.208,VALID,0,VALID,100,VALID,-0.0849042,VALID,19.4562,VALID,129,VALID,1.28604,
2007-05-31, 03:04:00,VALID,917.204,VALID,0,VALID,100,VALID,-0.0339617,VALID,19.4395,VALID,139,VALID,1.24364,
2007-05-31, 03:05:00,VALID,917.21,VALID,0,VALID,100,VALID,-0.0509425,VALID,19.4333,VALID,136,VALID,0.618963,
2007-05-31, 03:06:00,VALID,917.215,VALID,0,VALID,100,VALID,-0.0509425,VALID,19.4268,VALID,155,VALID,0.98758,
2007-05-31, 03:07:00,VALID,917.224,VALID,0,VALID,100,VALID,-0.0679233,VALID,19.4198,VALID,166,VALID,0.88559,
2007-05-31, 03:08:00,VALID,917.222,VALID,0,VALID,100,VALID,-0.0509425,VALID,19.4263,VALID,164,VALID,0.951172,
2007-05-31, 03:09:00,VALID,917.223,VALID,0,VALID,100,VALID,-0.0679233,VALID,19.44,VALID,158,VALID,0.818314,
2007-05-31, 03:10:00,VALID,917.227,VALID,0,VALID,100,VALID,-0.0849042,VALID,19.4233,VALID,159,VALID,1.00927,
2007-05-31, 03:11:00,VALID,917.219,VALID,0,VALID,100,VALID,-0.0339617,VALID,19.42,VALID,149,VALID,0.860764,
2007-05-31, 03:12:00,VALID,917.207,VALID,0,VALID,100,VALID,-0.0679233,VALID,19.4003,VALID,148,VALID,1.20351,
2007-05-31, 03:13:00,VALID,917.201,VALID,0,VALID,100,VALID,-0.0679233,VALID,19.3911,VALID,150,VALID,0.983648,
2007-05-31, 03:14:00,VALID,917.192,VALID,0,VALID,100,VALID,0.0339617,VALID,19.3834,VALID,148,VALID,0.740945,
2007-05-31, 03:15:00,VALID,917.194,VALID,0,VALID,100,VALID,0.0339617,VALID,19.3734,VALID,139,VALID,0.715799,
2007-05-31, 03:16:00,VALID,917.194,VALID,0,VALID,100,VALID,0.0509425,VALID,19.3701,VALID,158,VALID,1.28178,
2007-05-31, 03:17:00,VALID,917.181,VALID,0,VALID,100,VALID,0,VALID,19.3671,VALID,153,VALID,1.26617,
2007-05-31, 03:18:00,VALID,917.173,VALID,0,VALID,100,VALID,0.0169808,VALID,19.3569,VALID,149,VALID,1.04799,
2007-05-31, 03:19:00,VALID,917.177,VALID,0,VALID,100,VALID,0.0339617,VALID,19.3701,VALID,150,VALID,1.25908,
2007-05-31, 03:20:00,VALID,917.186,VALID,0,VALID,100,VALID,0.0169808,VALID,19.3604,VALID,155,VALID,1.35026,
2007-05-31, 03:21:00,VALID,917.191,VALID,0,VALID,100,VALID,0.0679233,VALID,19.3734,VALID,158,VALID,1.123,
2007-05-31, 03:22:00,VALID,917.182,VALID,0,VALID,100,VALID,0.0339617,VALID,19.3766,VALID,165,VALID,0.938262,
2007-05-31, 03:23:00,VALID,917.19,VALID,0,VALID,100,VALID,0.0339617,VALID,19.3799,VALID,152,VALID,0.922877,
2007-05-31, 03:24:00,VALID,917.184,VALID,0,VALID,100,VALID,0.0679233,VALID,19.3769,VALID,143,VALID,0.953646,
2007-05-31, 03:25:00,VALID,917.199,VALID,0,VALID,100,VALID,0.0339617,VALID,19.3734,VALID,141,VALID,0.788707,
2007-05-31, 03:26:00,VALID,917.198,VALID,0,VALID,100,VALID,0.0169808,VALID,19.3632,VALID,131,VALID,0.905506,
2007-05-31, 03:27:00,VALID,917.209,VALID,0,VALID,100,VALID,0.0339617,VALID,19.3671,VALID,129,VALID,0.993331,
2007-05-31, 03:28:00,VALID,917.216,VALID,0,VALID,100,VALID,0.0169808,VALID,19.3801,VALID,137,VALID,0.976017,
2007-05-31, 03:29:00,VALID,917.215,VALID,0,VALID,100,VALID,0,VALID,19.3801,VALID,132,VALID,1.18924,
2007-05-31, 03:30:00,VALID,917.212,VALID,0,VALID,100,VALID,0,VALID,19.3996,VALID,126,VALID,1.18832,
2007-05-31, 03:31:00,VALID,917.219,VALID,0,VALID,100,VALID,0.0169808,VALID,19.4188,VALID,125,VALID,0.807594,
2007-05-31, 03:32:00,VALID,917.217,VALID,0,VALID,100,VALID,0.0339617,VALID,19.452,VALID,126,VALID,0.884233,
2007-05-31, 03:33:01,VALID,917.201,VALID,0,VALID,100,VALID,0.0169808,VALID,19.4483,VALID,137,VALID,1.00937,
2007-05-31, 03:34:01,VALID,917.19,VALID,0,VALID,100,VALID,0,VALID,19.455,VALID,140,VALID,1.05806,
2007-05-31, 03:35:00,VALID,917.185,VALID,0,VALID,100,VALID,0,VALID,19.4682,VALID,134,VALID,0.9373,
2007-05-31, 03:36:00,VALID,917.181,VALID,0,VALID,100,VALID,0,VALID,19.448,VALID,124,VALID,1.04566,